Regional Weather Roundup
Issued by NWS State College, PA

Home | Current Version | Previous Version | Graphics & Text | Print | Product List | Glossary On
Versions: 1 2 3 4 5 6 7 8 9 10 11 12 13 14 15 16 17 18 19 20 21 22 23 24 25 26 27 28 29 30 31 32 33 34 35 36 37 38 39 40 41 42 43 44 45 46 47 48 49 50
000
ASUS41 KCTP 122103
RWRCTP

REGIONAL WEATHER ROUNDUP
NATIONAL WEATHER SERVICE STATE COLLEGE PA
400 PM EST TUE DEC 12 2017

Note: "fair" indicates few or no clouds below 12,000 feet with no
significant weather and/or obstructions to visibility.

* = STATION THAT DOES NOT REPORT PRECIPITATION /E.G. RAIN...SNOW...ETC/
    THUNDER OR FOG.

PAZ002>004-007>009-013>016-020>023-029>032-122200-
WESTERN PENNSYLVANIA

CITY           SKY/WX    TMP DP  RH WIND       PRES   REMARKS
ERIE           SNOW      18  11  74 W14G29    29.74R VSB 1/2 WCI   4
MEADVILLE      CLOUDY    14   5  67 W13G22    29.71R WCI   0
FRANKLIN*      FLURRIES  15   7  70 NW14G23   29.68S WCI   0
NEW CASTLE     NOT AVBL
BEAVER COUNTY  MOCLDY    18  10  73 NW12G22   29.74R WCI   5
BUTLER*        CLOUDY    19   7  59 W12G25    29.72R WCI   7
PITTSBURGH INT LGT SNOW  22  16  78 NW17G26   29.74R FOG     WCI   8
PITTSBURGH     FLURRIES  20  10  65 NW9G22    29.71R WCI   9
INDIANA*       CLOUDY    21  14  73 NW10G17   29.70R HAZE    WCI  10
LATROBE        LGT SNOW  23  10  58 NW17G29   29.71R WCI   9
WASHINGTON CO* FLURRIES  21  10  62 NW13G26   29.78R WCI   9
$$

PAZ004>006-010>012-017>019-024>028-033>037-041-042-045-046-049>053-122200-
CENTRAL PENNSYLVANIA

CITY           SKY/WX    TMP DP  RH WIND       PRES   REMARKS
BRADFORD       LGT SNOW  16   9  74 W17G24    29.55R WCI   0
DUBOIS         CLOUDY    17   6  62 NW16G25   29.60R WCI   2
CLEARFIELD     LGT SNOW  21  11  65 W17G31    29.61R WCI   7
JOHNSTOWN      LGT SNOW  18  13  80 W20G32    29.56R VSB 3/4 WCI   2
ALTOONA        FLURRIES  26  16  65 NW17G25   29.60R WCI  13
STATE COLLEGE  CLOUDY    25  12  58 W16G25    29.59R WCI  12
WILLIAMSPORT   CLOUDY    34  18  52 W14       29.54R
SELINSGROVE    MOCLDY    34  21  59 W14G21    29.56R
FT INDIANTOWN  MOCLDY    36  20  51 NW13G24   29.52R
CAPITAL CITY   CLOUDY    38  16  40 NW16G26   29.56R
HARRISBURG     CLOUDY    37  21  52 NW22      29.55R
YORK           MOCLDY    38  21  50 W13       29.55R
$$

PAZ038>040-043-044-047-048-054-055-060>062-067>071-122200-
EASTERN PENNSYLVANIA

CITY           SKY/WX    TMP DP  RH WIND       PRES   REMARKS
SCRANTON       LGT SNOW  33  27  78 NW24G30   29.47R
MOUNT POCONO   CLOUDY    32  28  85 W13       29.38S
ALLENTOWN      CLOUDY    42  28  57 W12       29.46R
QUAKERTOWN*    CLOUDY    39  28  65 W6        29.47R
READING        CLOUDY    41  28  60 NW21G28   29.49R
LANCASTER      FLURRIES  38  29  70 NW18G32   29.51R
COATESVILLE    CLOUDY    41  28  60 NW16G23   29.49R
POTTSTOWN      CLOUDY    40  28  62 W7        29.49R
BLUE BELL      CLOUDY    39  32  75 CALM      29.48S
DOYLESTOWN     CLOUDY    41  31  67 NW8G17    29.45S
WILLOW GROVE   NOT AVBL
NORTH PHILA    CLOUDY    44  31  60 W13       29.48S
PHILADELPHIA   CLOUDY    44  31  60 NW15      29.49R
$$




USA.gov is the U.S. government's official web portal to all federal, state and local government web resources and services.